Moorhead, MN

5:53 PM CDT on October 16, 2017 (GMT -0500)
Moorhead Municipal

Weather History for KJKJ - November, 2012

Change the Weather History Date:

Sunday, November 4, 2012

  Actual Average (KFAR) Record (KFAR)
Temperature  
Mean Temperature 36 °F -  
Max Temperature 41 °F 42 °F 70 °F (1975)
Min Temperature 30 °F 25 °F -3 °F (1951)
Degree Days  
Heating Degree Days 30    
Moisture  
Dew Point 34 °F    
Average Humidity 93    
Maximum Humidity 100    
Minimum Humidity 76    
Precipitation  
Precipitation 0.00 in - - ()
Sea Level Pressure  
Sea Level Pressure 30.20 in    
Wind  
Wind Speed 2 mph (NE)    
Max Wind Speed 6 mph    
Max Gust Speed -    
Visibility 8 miles    
Events      
Averages and records for this station are not official NWS values.
T = Trace of Precipitation, MM = Missing Value Source: NWS Daily Summary

Daily Weather History Graph

Daily Weather History Graph

Search for Another Location

Airport or City:

Trip Planner

Search our weather history database for the weather conditions in past years. The results will help you decide how hot, cold, wet, or windy it might be!

Date:

Astronomy

Nov. 04, 2012 Rise Set
Actual Time 7:14 AM CST 5:05 PM CST
Civil Twilight 6:42 AM CST 5:37 PM CST
Nautical Twilight 6:06 AM CST 6:13 PM CST
Astronomical Twilight 5:30 AM CST 6:49 PM CST
Moon 9:41 PM CST (11/4) 12:02 PM CST (11/4)
Length of Visible Light 10h 55m
Length of Day
9h 51m
Waning Gibbous, 72% of the Moon is Illuminated
Nov 4
Waning Gibbous
Nov 6
Last Quarter
Nov 13
New
Nov 20
First Quarter
Nov 28
Full

Hourly Weather History & Observations

Time (CST) Temp. Windchill Dew Point Humidity Pressure Visibility Wind Dir Wind Speed Gust Speed Precip Events Conditions
12:15 AM 33.8 °F 28.6 °F 33.8 °F 100% 30.22 in 7.0 mi North 5.8 mph - N/A   Mostly Cloudy
12:34 AM 33.8 °F 28.6 °F 33.8 °F 100% 30.22 in 7.0 mi North 5.8 mph - N/A   Mostly Cloudy
12:55 AM 33.8 °F 28.6 °F 33.8 °F 100% 30.22 in 7.0 mi North 5.8 mph - N/A   Overcast
1:15 AM 33.8 °F 29.6 °F 33.8 °F 100% 30.22 in 5.0 mi North 4.6 mph - N/A   Overcast
1:34 AM 33.8 °F 29.6 °F 33.8 °F 100% 30.23 in 5.0 mi NNW 4.6 mph - N/A   Overcast
1:14 AM 33.8 °F 29.6 °F 33.8 °F 100% 30.23 in 5.0 mi North 4.6 mph - N/A   Overcast
1:35 AM 33.8 °F 29.6 °F 33.8 °F 100% 30.23 in 5.0 mi NNE 4.6 mph - N/A   Overcast
1:55 AM 33.8 °F 29.6 °F 33.8 °F 100% 30.22 in 7.0 mi North 4.6 mph - N/A   Overcast
2:14 AM 33.8 °F 28.6 °F 33.8 °F 100% 30.22 in 5.0 mi NNE 5.8 mph - N/A   Mostly Cloudy
2:35 AM 32.0 °F 28.7 °F 32.0 °F 100% 30.22 in 4.0 mi NNE 3.5 mph - N/A   Scattered Clouds
2:55 AM 30.2 °F - 30.2 °F 100% 30.23 in 3.0 mi Calm Calm - N/A   Scattered Clouds
3:14 AM 30.2 °F 26.7 °F 30.2 °F 100% 30.23 in 1.0 mi North 3.5 mph - N/A   Overcast
3:35 AM 30.2 °F - 30.2 °F 100% 30.22 in 2.0 mi Calm Calm - N/A   Mostly Cloudy
3:54 AM 30.2 °F - 30.2 °F 100% 30.22 in 3.0 mi Calm Calm - N/A   Mostly Cloudy
4:15 AM 30.2 °F 26.7 °F 30.2 °F 100% 30.22 in 3.0 mi North 3.5 mph - N/A   Overcast
4:35 AM 30.2 °F - 30.2 °F 100% 30.21 in 3.0 mi Calm Calm - N/A   Overcast
4:54 AM 30.2 °F - 30.2 °F 100% 30.21 in 4.0 mi Calm Calm - N/A   Overcast
5:15 AM 30.2 °F - 30.2 °F 100% 30.21 in 4.0 mi Calm Calm - N/A   Overcast
5:35 AM 32.0 °F - 32.0 °F 100% 30.21 in 4.0 mi Calm Calm - N/A   Overcast
5:54 AM 32.0 °F - 32.0 °F 100% 30.21 in 4.0 mi Calm Calm - N/A   Overcast
6:15 AM 32.0 °F - 32.0 °F 100% 30.20 in 7.0 mi Calm Calm - N/A   Overcast
6:35 AM 33.8 °F - 33.8 °F 100% 30.21 in 7.0 mi Calm Calm - N/A   Overcast
6:54 AM 33.8 °F - 33.8 °F 100% 30.21 in 5.0 mi Calm Calm - N/A   Overcast
7:15 AM 33.8 °F - 33.8 °F 100% 30.20 in 5.0 mi Calm Calm - N/A   Overcast
7:35 AM 33.8 °F - 33.8 °F 100% 30.20 in 7.0 mi Calm Calm - N/A   Overcast
7:54 AM 33.8 °F - 33.8 °F 100% 30.20 in 7.0 mi Calm Calm - N/A   Overcast
8:15 AM 33.8 °F - 33.8 °F 100% 30.20 in 7.0 mi Calm Calm - N/A   Overcast
8:34 AM 33.8 °F - 33.8 °F 100% 30.20 in 10.0 mi Calm Calm - N/A   Overcast
8:55 AM 35.6 °F - 35.6 °F 100% 30.20 in 7.0 mi Calm Calm - N/A   Overcast
9:15 AM 35.6 °F - 35.6 °F 100% 30.19 in 7.0 mi Calm Calm - N/A   Overcast
9:34 AM 37.4 °F - 37.4 °F 100% 30.19 in 7.0 mi Calm Calm - N/A   Overcast
9:55 AM 37.4 °F 34.9 °F 37.4 °F 100% 30.19 in 7.0 mi SE 3.5 mph - N/A   Overcast
10:15 AM 37.4 °F 34.9 °F 37.4 °F 100% 30.19 in 10.0 mi SE 3.5 mph - N/A   Mostly Cloudy
10:34 AM 37.4 °F 34.9 °F 37.4 °F 100% 30.19 in 10.0 mi SE 3.5 mph - N/A   Mostly Cloudy
10:55 AM 37.4 °F 33.8 °F 35.6 °F 93% 30.18 in 10.0 mi SE 4.6 mph - N/A   Overcast
11:15 AM 39.2 °F - 35.6 °F 87% 30.18 in 10.0 mi Calm Calm - N/A   Overcast
11:34 AM 39.2 °F 37.0 °F 35.6 °F 87% 30.18 in 10.0 mi SE 3.5 mph - N/A   Overcast
11:55 AM 39.2 °F - 35.6 °F 87% 30.18 in 10.0 mi Calm Calm - N/A   Overcast
12:15 PM 39.2 °F - 35.6 °F 87% 30.18 in 10.0 mi Calm Calm - N/A   Overcast
12:35 PM 39.2 °F - 35.6 °F 87% 30.17 in 10.0 mi Calm Calm - N/A   Overcast
12:55 PM 39.2 °F - 33.8 °F 81% 30.17 in 10.0 mi Calm Calm - N/A   Overcast
1:14 PM 39.2 °F - 33.8 °F 81% 30.16 in 10.0 mi Calm Calm - N/A   Overcast
1:35 PM 39.2 °F - 33.8 °F 81% 30.16 in 10.0 mi Calm Calm - N/A   Mostly Cloudy
1:55 PM 39.2 °F - 33.8 °F 81% 30.16 in 10.0 mi Calm Calm - N/A   Overcast
2:14 PM 39.2 °F - 33.8 °F 81% 30.16 in 10.0 mi Calm Calm - N/A   Overcast
2:35 PM 39.2 °F - 33.8 °F 81% 30.16 in 10.0 mi Calm Calm - N/A   Overcast
2:55 PM 41.0 °F - 33.8 °F 76% 30.16 in 10.0 mi Calm Calm - N/A   Overcast
3:14 PM 41.0 °F 39.0 °F 33.8 °F 76% 30.16 in 10.0 mi ESE 3.5 mph - N/A   Overcast
3:35 PM 41.0 °F - 33.8 °F 76% 30.16 in 10.0 mi Calm Calm - N/A   Overcast
3:55 PM 39.2 °F - 33.8 °F 81% 30.16 in 10.0 mi Calm Calm - N/A   Overcast
4:14 PM 39.2 °F - 35.6 °F 87% 30.17 in 10.0 mi Calm Calm - N/A   Overcast
4:35 PM 39.2 °F - 33.8 °F 81% 30.17 in 10.0 mi Calm Calm - N/A   Overcast
4:55 PM 39.2 °F 37.0 °F 33.8 °F 81% 30.17 in 10.0 mi ESE 3.5 mph - N/A   Overcast
5:15 PM 39.2 °F 37.0 °F 35.6 °F 87% 30.18 in 10.0 mi ESE 3.5 mph - N/A   Overcast
5:35 PM 39.2 °F - 35.6 °F 87% 30.18 in 10.0 mi Calm Calm - N/A   Overcast
5:54 PM 39.2 °F - 35.6 °F 87% 30.19 in 10.0 mi Calm Calm - N/A   Overcast
6:15 PM 39.2 °F - 35.6 °F 87% 30.19 in 10.0 mi Calm Calm - N/A   Overcast
6:35 PM 39.2 °F - 35.6 °F 87% 30.19 in 10.0 mi Calm Calm - N/A   Overcast
6:54 PM 39.2 °F - 35.6 °F 87% 30.20 in 10.0 mi Calm Calm - N/A   Overcast
7:15 PM 39.2 °F - 35.6 °F 87% 30.20 in 10.0 mi Calm Calm - N/A   Overcast
7:35 PM 37.4 °F - 35.6 °F 93% 30.20 in 10.0 mi Calm Calm - N/A   Overcast
7:54 PM 37.4 °F - 35.6 °F 93% 30.20 in 10.0 mi Calm Calm - N/A   Overcast
8:15 PM 37.4 °F - 35.6 °F 93% 30.20 in 10.0 mi Calm Calm - N/A   Overcast
8:35 PM 37.4 °F - 35.6 °F 93% 30.21 in 10.0 mi Calm Calm - N/A   Overcast
8:54 PM 37.4 °F - 35.6 °F 93% 30.21 in 10.0 mi Calm Calm - N/A   Overcast
9:15 PM 37.4 °F - 35.6 °F 93% 30.21 in 10.0 mi Calm Calm - N/A   Overcast
9:34 PM 37.4 °F - 35.6 °F 93% 30.22 in 10.0 mi Calm Calm - N/A   Overcast
9:55 PM 37.4 °F - 35.6 °F 93% 30.22 in 10.0 mi Calm Calm - N/A   Overcast
10:15 PM 37.4 °F - 35.6 °F 93% 30.23 in 7.0 mi Calm Calm - N/A   Overcast
10:34 PM 37.4 °F - 35.6 °F 93% 30.23 in 10.0 mi Calm Calm - N/A   Overcast
10:55 PM 37.4 °F - 35.6 °F 93% 30.23 in 10.0 mi Calm Calm - N/A   Overcast